Leadville, CO

12:23 AM MST on December 18, 2017 (GMT -0700)
Lake County

Weather History for KLXV - December, 2012

Change the Weather History Date:

Tuesday, December 11, 2012

  Actual Average Record
Temperature  
Mean Temperature 12 °F -  
Max Temperature 19 °F 29 °F 48 °F (2014)
Min Temperature 4 °F 4 °F -24 °F (1985)
Degree Days  
Heating Degree Days 53 48  
Month to date heating degree days 470 522  
Since 1 July heating degree days 3490 3927  
Cooling Degree Days 0 0  
Month to date cooling degree days 0 0  
Year to date cooling degree days 0 0  
Moisture  
Dew Point 3 °F    
Average Humidity 72    
Maximum Humidity 88    
Minimum Humidity 56    
Precipitation  
Precipitation 0.04 in 0.03 in 0.15 in (2010)
Month to date precipitation 0.48 0.28  
Year to date precipitation 10.78 11.98  
Sea Level Pressure  
Sea Level Pressure 29.92 in    
Wind  
Wind Speed 9 mph (NNW)    
Max Wind Speed 26 mph    
Max Gust Speed 33 mph    
Visibility 6 miles    
Events Snow    
T = Trace of Precipitation, MM = Missing Value Source: NWS Daily Summary

Daily Weather History Graph

Daily Weather History Graph

Search for Another Location

Airport or City:

Trip Planner

Search our weather history database for the weather conditions in past years. The results will help you decide how hot, cold, wet, or windy it might be!

Date:

Astronomy

Dec. 11, 2012 Rise Set
Actual Time 7:15 AM MST 4:42 PM MST
Civil Twilight 6:45 AM MST 5:12 PM MST
Nautical Twilight 6:11 AM MST 5:46 PM MST
Astronomical Twilight 5:38 AM MST 6:18 PM MST
Moon 5:13 AM MST (12/11) 3:23 PM MST (12/11)
Length of Visible Light 10h 27m
Length of Day
9h 27m
Waning Crescent, 4% of the Moon is Illuminated
Dec 11
Waning Crescent
Dec 13
New
Dec 19
First Quarter
Dec 28
Full
Jan 4
Last Quarter

Hourly Weather History & Observations

Time (MST) Temp. Windchill Dew Point Humidity Pressure Visibility Wind Dir Wind Speed Gust Speed Precip Events Conditions
12:14 AM 6.8 °F -7.8 °F 1.4 °F 79% 29.84 in 4.0 mi NW 10.4 mph 19.6 mph 0.00 in Snow Light Snow
12:36 AM 6.8 °F -4.8 °F 1.4 °F 79% 29.84 in 10.0 mi NNE 6.9 mph - 0.00 in   Overcast
12:53 AM 5.0 °F -2.1 °F -0.9 °F 76% 29.95 in 10.0 mi North 3.5 mph - 0.00 in   Overcast
1:33 AM 5.0 °F -4.1 °F -0.4 °F 78% 29.85 in 6.0 mi NNW 4.6 mph - 0.00 in   Haze
1:53 AM 5.0 °F -4.1 °F 1.0 °F 84% 29.96 in 3.0 mi NW 4.6 mph - 0.00 in Snow Light Snow
2:18 AM 6.8 °F - 1.4 °F 79% 29.85 in 2.0 mi Calm Calm - 0.00 in Snow Light Snow
2:46 AM 6.8 °F -4.8 °F 1.4 °F 79% 29.85 in 3.0 mi NW 6.9 mph - 0.00 in Snow Light Snow
2:53 AM 6.1 °F -0.9 °F 1.9 °F 83% 29.96 in 2.5 mi North 3.5 mph - 0.00 in Snow Light Snow
3:06 AM 6.8 °F -2.0 °F 1.4 °F 79% 29.85 in 4.0 mi North 4.6 mph - 0.00 in Snow Light Snow
3:49 AM 6.8 °F -2.0 °F 1.4 °F 79% 29.85 in 2.0 mi NW 4.6 mph - 0.00 in Snow Light Snow
3:53 AM 6.1 °F - 1.9 °F 83% 29.96 in 1.8 mi Calm Calm - 0.00 in Snow Light Snow
4:01 AM 6.8 °F -0.1 °F 1.4 °F 79% 29.85 in 2.5 mi NNW 3.5 mph - 0.00 in Snow Light Snow
4:08 AM 6.8 °F -0.1 °F 1.4 °F 79% 29.85 in 6.0 mi North 3.5 mph - 0.00 in Snow Light Snow
4:45 AM 6.8 °F -0.1 °F 1.4 °F 79% 29.85 in 2.0 mi North 3.5 mph - 0.00 in Snow Light Snow
4:53 AM 7.0 °F - 1.9 °F 80% 29.96 in 1.8 mi Calm Calm - 0.00 in Snow Light Snow
5:06 AM 6.8 °F - 3.2 °F 85% 29.85 in 1.2 mi Calm Calm - 0.00 in Snow Light Snow
5:19 AM 6.8 °F -2.0 °F 3.2 °F 85% 29.85 in 2.0 mi NNE 4.6 mph - 0.00 in Snow Light Snow
5:28 AM 6.8 °F -0.1 °F 3.2 °F 85% 29.85 in 4.0 mi NE 3.5 mph - 0.00 in   Overcast
5:39 AM 6.8 °F - 3.2 °F 85% 29.85 in 2.0 mi Calm Calm - 0.01 in Snow Light Snow
5:53 AM 7.0 °F 0.1 °F 3.0 °F 84% 29.96 in 3.0 mi Variable 3.5 mph - 0.01 in Snow Light Snow
6:04 AM 8.6 °F - 3.2 °F 79% 29.86 in 2.0 mi Calm Calm - 0.00 in Snow Light Snow
6:10 AM 8.6 °F - 3.2 °F 79% 29.86 in 1.2 mi Calm Calm - 0.00 in Snow Light Snow
6:41 AM 8.6 °F - 3.2 °F 79% 29.88 in 2.0 mi Calm Calm - 0.00 in Snow Light Snow
6:53 AM 8.1 °F 1.4 °F 3.9 °F 83% 29.99 in 2.5 mi West 3.5 mph - 0.00 in Snow Light Snow
7:11 AM 8.6 °F -2.6 °F 3.2 °F 79% 29.89 in 1.5 mi NNW 6.9 mph - 0.01 in Snow Light Snow
7:53 AM 8.1 °F -4.3 °F 3.0 °F 80% 30.02 in 1.5 mi WNW 8.1 mph - 0.01 in Snow Light Snow
8:50 AM 10.4 °F 0.8 °F 3.2 °F 73% 29.93 in 3.0 mi North 5.8 mph - 0.00 in Snow Light Snow
8:53 AM 10.0 °F 1.8 °F 3.9 °F 76% 30.03 in 3.0 mi Variable 4.6 mph - 0.00 in Snow Light Snow
9:06 AM 10.4 °F 2.2 °F 3.2 °F 73% 29.94 in 2.5 mi NNW 4.6 mph - 0.00 in Snow Light Snow
9:22 AM 12.2 °F 4.3 °F 3.2 °F 67% 29.94 in 4.0 mi North 4.6 mph - 0.00 in Snow Light Snow
9:53 AM 12.9 °F 3.8 °F 3.9 °F 67% 30.03 in 8.0 mi North 5.8 mph - 0.00 in   Overcast
10:53 AM 15.1 °F 0.5 °F 3.0 °F 59% 29.99 in 10.0 mi NNW 13.8 mph 20.7 mph 0.02 in   Overcast
11:26 AM 15.8 °F 1.4 °F 3.2 °F 58% 29.92 in 10.0 mi NW 13.8 mph 24.2 mph N/A   Partly Cloudy
11:53 AM 16.0 °F 2.3 °F 5.0 °F 62% 29.96 in 10.0 mi NW 12.7 mph 23.0 mph N/A   Scattered Clouds
12:53 PM 19.0 °F 6.1 °F 6.1 °F 57% 29.96 in 10.0 mi NNW 12.7 mph 20.7 mph N/A   Overcast
1:53 PM 16.0 °F 1.7 °F 5.0 °F 62% 29.96 in 10.0 mi WNW 13.8 mph 25.3 mph N/A   Clear
2:53 PM 16.0 °F 0.6 °F 5.0 °F 62% 29.97 in 10.0 mi WNW 16.1 mph - N/A   Partly Cloudy
3:53 PM 15.1 °F 2.5 °F 6.1 °F 68% 29.97 in 10.0 mi WNW 10.4 mph - N/A   Clear
4:53 PM 12.9 °F 5.2 °F 6.1 °F 74% 29.98 in 10.0 mi WNW 4.6 mph - N/A   Mostly Cloudy
5:34 PM 8.6 °F -3.7 °F 5.0 °F 85% 29.89 in 10.0 mi NNE 8.1 mph - N/A   Mostly Cloudy
5:49 PM 8.6 °F -3.7 °F 3.2 °F 79% 29.90 in 10.0 mi NNE 8.1 mph - N/A   Scattered Clouds
5:53 PM 8.1 °F -4.3 °F 3.9 °F 83% 30.01 in 10.0 mi NE 8.1 mph - N/A   Scattered Clouds
6:53 PM 8.1 °F -7.0 °F 1.9 °F 76% 30.03 in 10.0 mi North 11.5 mph - N/A   Clear
7:53 PM 12.0 °F -5.1 °F 3.9 °F 70% 30.00 in 10.0 mi North 17.3 mph 21.9 mph N/A   Clear
8:53 PM 12.0 °F -3.4 °F 5.0 °F 73% 29.98 in 10.0 mi North 13.8 mph - N/A   Overcast
9:53 PM 14.0 °F -0.8 °F 6.1 °F 71% 29.95 in 10.0 mi North 13.8 mph - N/A   Clear
10:53 PM 15.1 °F -0.6 °F 8.1 °F 74% 29.93 in 10.0 mi North 16.1 mph - N/A   Clear
11:53 PM 12.0 °F 4.1 °F 5.0 °F 73% 29.95 in 10.0 mi North 4.6 mph - N/A   Clear